Location: Unnamed
(47.6264°N, 122.3366°W)
Time: 20:55:13
(UTC-07:00)

ELYUSIUM/LOWER FREE FLYE - Pass Details

Date: 07 August 2020
Orbit: 571 x 589 km, 97.7° (Epoch: 21 September)

Event Time Altitude Azimuth Distance (km) Brightness Sun altitude
Exits shadow 00:15:56 13° 258° (WSW) 1,720 ? -24.8°
Maximum altitude 00:16:47 13° 271° (W) 1,683 ? -24.8°
Drops below altitude 10° 00:18:46 10° 300° (WNW) 1,888 ? -24.9°
Sets 00:22:01 0° 328° (NNW) 2,797 ? -25.0°
